Weather History for York, PA

Change the Weather History Date:

Monday, February 13, 2012

  Actual Average Record
Temperature  
Mean Temperature 33 °F -  
Max Temperature 45 °F 0 °F 52 °F (2001)
Min Temperature 21 °F - 3 °F (2006)
Degree Days  
Heating Degree Days 32    
Moisture  
Dew Point 16 °F    
Average Humidity 55    
Maximum Humidity 78    
Minimum Humidity 33    
Precipitation  
Precipitation 0.00 in - - ()
Sea Level Pressure  
Sea Level Pressure 30.11 in    
Wind  
Wind Speed 6 mph (WSW)    
Max Wind Speed 14 mph    
Max Gust Speed 23 mph    
Visibility 10 miles    
Events      
Averages and records for this station are not official NWS values.
T = Trace of Precipitation, MM = Missing Value Source: NWS Daily Summary

Daily Weather History Graph

Daily Weather History Graph

Search for Another Location

Airport:

Trip Planner

Search our weather history database for the weather conditions in past years. The results will help you decide how hot, cold, wet, or windy it might be!

Date:

Astronomy

Feb. 13, 2012 Rise Set
Actual Time 7:03 AM EST 5:40 PM EST
Civil Twilight 6:35 AM EST 6:08 PM EST
Nautical Twilight 6:03 AM EST 6:40 PM EST
Astronomical Twilight 5:32 AM EST 7:11 PM EST
Moon No Moon Rise 10:01 AM EST (2/13)
Length of Visible Light 11h 32m
Length of Day
10h 37m
Waning Gibbous, 62% of the Moon is Illuminated
Feb 13
Waning Gibbous
Feb 14
Last Quarter
Feb 21
New
Feb 29
First Quarter
Mar 8
Full

Hourly Weather History & Observations

Time (EST) Temp. Windchill Dew Point Humidity Pressure Visibility Wind Dir Wind Speed Gust Speed Precip Events Conditions
12:53 AM 21.9 °F 14.5 °F 10.9 °F 63% 30.10 in 10.0 mi West 5.8 mph - N/A   Clear
1:53 AM 21.9 °F 15.7 °F 10.9 °F 63% 30.11 in 10.0 mi WSW 4.6 mph - N/A   Clear
2:53 AM 23.0 °F 14.7 °F 12.0 °F 63% 30.11 in 10.0 mi SW 6.9 mph - N/A   Clear
3:53 AM 23.0 °F 15.8 °F 12.0 °F 63% 30.12 in 10.0 mi SW 5.8 mph - N/A   Clear
4:53 AM 21.0 °F 14.6 °F 12.0 °F 68% 30.13 in 10.0 mi SSW 4.6 mph - N/A   Clear
5:53 AM 23.0 °F 14.7 °F 12.9 °F 65% 30.13 in 10.0 mi WSW 6.9 mph - N/A   Clear
6:53 AM 21.9 °F 14.5 °F 12.9 °F 68% 30.14 in 10.0 mi WSW 5.8 mph - N/A   Clear
7:53 AM 25.0 °F 17.1 °F 12.9 °F 60% 30.15 in 10.0 mi SW 6.9 mph - N/A   Clear
8:53 AM 28.0 °F 19.3 °F 15.1 °F 58% 30.17 in 10.0 mi West 9.2 mph 16.1 mph N/A   Clear
9:53 AM 30.9 °F 20.7 °F 14.0 °F 50% 30.16 in 10.0 mi West 13.8 mph 23.0 mph N/A   Clear
10:53 AM 34.0 °F 25.0 °F 15.1 °F 46% 30.15 in 10.0 mi West 12.7 mph 19.6 mph N/A   Clear
11:53 AM 37.0 °F 28.9 °F 17.1 °F 44% 30.13 in 10.0 mi West 12.7 mph 20.7 mph N/A   Clear
12:53 PM 39.9 °F 33.4 °F 18.0 °F 41% 30.10 in 10.0 mi West 10.4 mph 16.1 mph N/A   Clear
1:53 PM 42.1 °F 36.6 °F 19.0 °F 40% 30.07 in 10.0 mi West 9.2 mph 16.1 mph N/A   Clear
3:53 PM 45.0 °F 39.7 °F 17.1 °F 33% 30.05 in 10.0 mi West 10.4 mph - N/A   Clear
4:53 PM 42.1 °F 37.7 °F 17.1 °F 37% 30.06 in 10.0 mi WSW 6.9 mph - N/A   Clear
5:53 PM 37.9 °F 34.4 °F 17.1 °F 43% 30.07 in 10.0 mi WSW 4.6 mph - N/A   Clear
6:53 PM 39.9 °F 35.1 °F 16.0 °F 38% 30.08 in 10.0 mi WSW 6.9 mph - N/A   Clear
7:53 PM 34.0 °F - 18.0 °F 52% 30.08 in 10.0 mi Calm Calm - N/A   Clear
8:53 PM 32.0 °F 28.7 °F 18.0 °F 56% 30.09 in 10.0 mi West 3.5 mph - N/A   Clear
9:53 PM 30.0 °F - 21.0 °F 69% 30.08 in 10.0 mi Calm Calm - N/A   Clear
10:53 PM 28.0 °F - 19.9 °F 72% 30.09 in 10.0 mi Calm Calm - N/A   Clear
11:53 PM 28.9 °F - 23.0 °F 78% 30.09 in 10.0 mi Calm Calm - N/A   Scattered Clouds